Flag for U.S.A. Weather past 2 weeks in Carson City, Nevada, U.S.A.

Now
88 °F

Passing clouds.


Feels Like: 84 °F
Forecast: 48 / 86 °F
Wind: 6 mph from Northeast

Location: Reno Tahoe International Airport

Current Time: Aug 27, 2014 at 4:53:48 PM

Latest Report: Aug 27, 2014 at 3:55 PM


Visibility: 10 mi

Pressure: 29.99 "Hg

Humidity: 13%

Dew point: 31 °F

Location of Carson CityLocation

Historic Weather in Carson City — Graph

°F

Carson City temperature yesterday

Maximum temperature yesterday: 82 °F (at 2:55 PM)
Minimum temperature yesterday: 55 °F (at 5:55 AM)
Average temperature yesterday: 69 °F

Past Weeks' High & Low Weather Summary

 TemperatureHumidityPressure
High94 °F (Aug 16, 3:55 PM)69% (Aug 14, 5:55 AM)30.11 "Hg (Aug 14, 5:55 AM)
Low53 °F (Aug 24, 5:55 AM)6% (Aug 17, 2:55 PM)29.63 "Hg (Aug 19, 4:55 PM)
Average73 °F30%29.88 "Hg
* Reported Aug 12 3:55 PM — Aug 27 3:55 PM, Carson City, Weather by CustomWeather, © 2014

Note: Actual official high and low records may vary slightly from our data, if they occured in-between our weather recording intervals... More about our weather records

Advertising

Carson City weather history for previous 24 hours

 ConditionsComfort  
Time TempWeatherWind HumidityBarometerVisibility
3:55 PM
Aug 27
88 °FPassing clouds.6 mph13%29.99 "Hg10 mi
2:55 PM88 °FPassing clouds.3 mph13%30.01 "Hg10 mi
1:55 PM87 °FPassing clouds.3 mph14%30.03 "Hg10 mi
12:55 PM85 °FPassing clouds.3 mph16%30.05 "Hg10 mi
11:55 AM83 °FPassing clouds.5 mph17%30.06 "Hg10 mi
10:55 AM78 °FSunny.No wind20%30.09 "Hg10 mi
9:55 AM70 °FSunny.No wind29%30.10 "Hg10 mi
8:55 AM66 °FSunny.No wind33%30.10 "Hg10 mi
7:55 AM59 °FSunny.No wind44%30.10 "Hg10 mi
6:55 AM56 °FClear.No wind53%30.11 "Hg10 mi
5:55 AM55 °FClear.No wind53%30.09 "Hg10 mi
4:55 AM59 °FClear.No wind42%30.06 "Hg10 mi
3:55 AM61 °FClear.3 mph39%30.04 "Hg10 mi
2:55 AM62 °FClear.6 mph37%30.03 "Hg10 mi
1:55 AM62 °FClear.No wind35%30.03 "Hg10 mi
12:55 AM64 °FClear.No wind33%30.03 "Hg10 mi
11:55 PM
Aug 26
67 °FClear.5 mph29%30.01 "Hg10 mi
10:55 PM69 °FClear.6 mph26%30.00 "Hg10 mi
9:55 PM71 °FClear.5 mph26%29.99 "Hg10 mi
8:55 PM74 °FClear.3 mph21%29.98 "Hg10 mi
7:55 PM78 °FSunny.6 mph18%29.96 "Hg10 mi
6:55 PM80 °FSunny.9 mph17%29.95 "Hg10 mi
5:55 PM81 °FPassing clouds.12 mph17%29.95 "Hg10 mi
4:55 PM81 °FPassing clouds.12 mph16%29.95 "Hg10 mi
Weather by CustomWeather, © 2014

See weather overviewHow to use our weather pages